Miscellaneous Local Product
Issued by NWS Hastings, NE

Home | Current Version | Previous Version | Text Only | Print | Product List | Glossary On
Versions: 1 2 3 4 5 6 7 8 9 10 11 12 13 14 15 16 17 18 19 20 21 22 23 24 25 26 27 28 29 30 31 32 33 34 35 36 37 38 39 40 41 42 43 44 45 46 47 48 49 50
000
AXUS43 KGID 301502
MISGRI

GID CWA HOURLY WEATHER ROUNDUP
NATIONAL WEATHER SERVICE HASTINGS NE
1000 AM CDT THU JUL 30 2015

NOTE: "FAIR" INDICATES FEW OR NO CLOUDS BELOW 12,000 FEET WITH NO
SIGNIFICANT WEATHER AND/OR OBSTRUCTIONS TO VISIBILITY.

...SOUTH CENTRAL NEBRASKA...

CITY           SKY/WX    TMP DP  RH WIND       PRES   REMARKS
GRAND ISLAND   SUNNY     79  60  52 SW16      30.24R
HASTINGS       SUNNY     75  62  64 S9        30.25S
KEARNEY        SUNNY     75  61  60 S13       30.25S
ORD            SUNNY     76  60  57 VRB6      30.23R
YORK           SUNNY     73  66  78 SW7       30.23S
AURORA         SUNNY     76  64  66 SW13      30.23S
LEXINGTON      SUNNY     75  66  73 SW12      30.27R
HOLDREGE       SUNNY     74  60  61 S10       30.27S
HEBRON         SUNNY     76  62  63 SW3       30.25S

...NEBRASKA PANHANDLE...

CITY           SKY/WX    TMP DP  RH WIND       PRES   REMARKS
CHADRON        SUNNY     69  50  50 VRB3      30.28S
ALLIANCE       SUNNY     72  55  55 SW6       30.29S
SCOTTSBLUFF    SUNNY     70  55  59 CALM      30.31R
SIDNEY         SUNNY     74  60  61 SW8       30.32S

...WESTERN AND NORTH CENTRAL NEBRASKA...

CITY           SKY/WX    TMP DP  RH WIND       PRES   REMARKS
VALENTINE      SUNNY     77  51  40 W13       30.23R
AINSWORTH      MOSUNNY   77  56  47 SW15      30.23S
ONEILL         SUNNY     73  58  60 SW8       30.23F
BROKEN BOW     SUNNY     76  60  57 SW14      30.25S
IMPERIAL       SUNNY     75  60  59 S8        30.28S
NORTH PLATTE   SUNNY     75  64  68 S8        30.26F
MCCOOK         MOSUNNY   76  65  68 S7        30.27S

...EASTERN NEBRASKA...

CITY           SKY/WX    TMP DP  RH WIND       PRES   REMARKS
NORFOLK        SUNNY     74  61  63 W8        30.21S
SO SIOUX CITY  SUNNY     77  61  57 W8        30.18R
TEKAMAH        SUNNY     77  64  64 VRB5      30.19R
COLUMBUS       SUNNY     73  59  60 W7        30.22R
ALBION         SUNNY     74  59  59 W7        30.24R
OMAHA EPPLEY   MOSUNNY   79  60  52 W6        30.21R
OFFUTT AFB     SUNNY     76  63  62 W6        30.20S
MILLARD        SUNNY     76  60  59 SW6       30.21S
LINCOLN        SUNNY     77  65  66 SW6       30.22S
NEBRASKA CITY  SUNNY     74  62  68 W3        30.23R
BEATRICE       SUNNY     73  65  76 SW5       30.24S
FALLS CITY     SUNNY     77  67  71 W5        30.22S

...NORTHERN KANSAS...

CITY           SKY/WX    TMP DP  RH WIND       PRES   REMARKS
GOODLAND       SUNNY     73  65  75 SW14      30.30S
HILL CITY      MOSUNNY   75  66  73 S6        30.27F
NORTON         SUNNY     75  63  64 S8        30.26S
PHILLIPSBURG   SUNNY     75  64  69 SE3       30.26F
SMITH CENTER   SUNNY     75  63  64 SE12      30.27S
HAYS           CLOUDY   N/A N/A N/A SE6       30.28S
RUSSELL        PTSUNNY   76  67  73 VRB7      30.25F
CONCORDIA      SUNNY     77  66  68 S6        30.25S
SALINA         PTSUNNY   74  66  76 SE5       30.25S
TOPEKA         PTSUNNY   76  69  79 CALM      30.23S



USA.gov is the U.S. government's official web portal to all federal, state and local government web resources and services.